EW0765 Weather Reports


Display with metric or nautical units.
time (UTC)temp
F
wind
direction
speed
MPH
gust
MPH
rain 1hr
in
rain 24hr
in
rain mn
in
humidity
%
barometer
mb
20260502191508 44 273 1.0 9.0 0.00 0.30 0.22 61 1017.9
20260502190015 45 103 1.0 8.0 0.00 0.34 0.22 57 1017.9
20260502184506 44 96 0.0 2.0 0.00 0.34 0.22 60 1017.9
20260502183005 44 283 0.0 2.0 0.00 0.34 0.22 62 1018.2
20260502181505 45 221 0.0 8.0 0.00 0.34 0.22 59 1018.1
20260502163052 41 40 0.0 3.0 0.00 0.39 0.22 79 1018.7
20260502161552 40 333 0.0 1.0 0.00 0.39 0.22 79 1018.7
20260502151545 39 77 0.0 0.0 0.00 0.52 0.22 88 1018.6
20260502123031 36 35 0.0 7.0 0.02 0.62 0.20 92 1017.7
20260502121530 37 355 0.0 1.0 0.01 0.61 0.19 93 1017.6
20260502114531 38 106 0.0 0.0 0.00 0.61 0.18 93 1017.1
20260502113028 37 60 0.0 0.0 0.00 0.61 0.18 93 1017.0
20260502111523 38 92 0.0 0.0 0.00 0.61 0.18 93 1016.9
20260502110023 37 92 0.0 0.0 0.00 0.61 0.18 93 1017.0
20260502104523 37 96 0.0 0.0 0.00 0.61 0.18 93 1016.8
20260502103021 37 96 0.0 0.0 0.00 0.61 0.18 93 1016.7
20260502101520 37 96 0.0 0.0 0.04 0.61 0.18 93 1016.6
20260502091517 38 62 0.0 0.0 0.06 0.56 0.14 92 1016.4
20260502071508 39 58 0.0 0.0 0.00 0.51 0.08 92 1016.3
20260502070008 39 58 0.0 0.0 0.01 0.51 0.08 93 1016.3
20260502064506 39 59 0.0 0.0 0.01 0.51 0.08 93 1016.3
20260502063007 39 45 0.0 0.0 0.01 0.51 0.08 92 1016.4
20260502061505 39 44 0.0 0.0 0.01 0.51 0.08 92 1016.5
20260502060004 39 44 0.0 0.0 0.00 0.50 0.07 92 1016.7
20260502054506 39 44 0.0 0.0 0.00 0.50 0.07 92 1016.7
20260502053001 40 44 0.0 0.0 0.01 0.50 0.07 92 1016.8
20260502051603 40 44 0.0 0.0 0.03 0.50 0.07 92 1016.9
20260502050059 40 44 0.0 0.0 0.07 0.50 0.07 91 1016.8
20260502044614 40 44 0.0 0.0 0.08 0.50 0.07 90 1017.2
20260502043124 40 44 0.0 0.0 0.12 0.49 0.06 91 1017.3
20260502041601 40 44 0.0 0.0 0.11 0.47 0.04 91 1017.3
20260502040056 40 44 0.0 0.0 0.07 0.43 0.43 91 1017.3
20260502034551 40 44 0.0 0.0 0.06 0.42 0.42 90 1017.1
20260502033051 41 44 0.0 0.0 0.01 0.37 0.37 90 1017.1
20260502031548 41 45 0.0 0.0 0.00 0.36 0.36 89 1016.8
20260502030049 42 28 0.0 0.0 0.00 0.36 0.36 89 1016.7
20260502024547 42 296 0.0 0.0 0.00 0.36 0.36 89 1016.6
20260502023044 42 297 0.0 0.0 0.00 0.36 0.36 89 1016.6
20260502021544 42 296 0.0 0.0 0.00 0.36 0.36 89 1016.5
20260502020043 42 296 0.0 0.0 0.00 0.36 0.36 89 1016.5
20260502014541 42 296 0.0 0.0 0.00 0.36 0.36 88 1016.3
20260502013049 42 296 0.0 0.0 0.00 0.36 0.36 87 1016.2
20260502011539 42 296 0.0 0.0 0.00 0.36 0.36 86 1016.1
20260502010038 42 296 0.0 0.0 0.00 0.36 0.36 85 1016.0
20260502004542 43 296 0.0 0.0 0.00 0.36 0.36 84 1015.8
20260502003033 43 296 0.0 0.0 0.00 0.36 0.36 83 1015.5
20260502001531 44 296 0.0 0.0 0.00 0.36 0.36 82 1015.2
20260502000030 44 296 0.0 0.0 0.00 0.36 0.36 80 1015.1
20260501234530 44 296 0.0 0.0 0.00 0.36 0.36 79 1015.0
20260501233028 44 296 0.0 0.0 0.00 0.36 0.36 79 1015.1
20260501231528 44 297 0.0 0.0 0.00 0.36 0.36 79 1015.0
20260501230032 44 360 0.0 0.0 0.00 0.36 0.36 80 1014.9
20260501224526 44 52 0.0 1.0 0.00 0.36 0.36 80 1014.8
20260501223025 44 15 0.0 2.0 0.00 0.36 0.36 77 1014.7
20260501221524 44 21 0.0 0.0 0.00 0.36 0.36 79 1014.7
20260501220035 44 355 0.0 1.0 0.00 0.36 0.36 81 1014.7
20260501214528 44 22 1.0 8.0 0.00 0.36 0.36 80 1014.6
20260501213023 43 355 0.0 0.0 0.00 0.36 0.36 83 1014.6
20260501211523 43 92 0.0 3.0 0.00 0.36 0.36 82 1014.4
20260501210022 43 156 0.0 2.0 0.00 0.36 0.36 84 1014.2
20260501204538 43 44 0.0 2.0 0.00 0.36 0.36 88 1014.0
20260501203021 41 42 0.0 1.0 0.00 0.36 0.36 90 1013.9
20260501201520 41 69 0.0 6.0 0.01 0.36 0.36 91 1014.2
20260501200020 41 66 0.0 6.0 0.01 0.37 0.36 91 1014.1
20260501194524 41 75 0.0 8.0 0.02 0.37 0.36 92 1013.8
20260501193018 41 74 5.0 14.0 0.03 0.37 0.36 92 1013.7